TimeCST,TemperatureF,Dew PointF,Humidity,Sea Level PressureIn,VisibilityMPH,Wind Direction,Wind SpeedMPH,Gust SpeedMPH,PrecipitationIn,Events,Conditions,WindDirDegrees,DateUTC
12:54 AM,14.0,10.0,84,30.21,7.0,NNW,11.5,-,N/A,,Overcast,330,2012-12-29 06:54:00
1:54 AM,14.0,9.0,80,30.21,8.0,NNW,4.6,-,N/A,,Overcast,330,2012-12-29 07:54:00
2:22 AM,12.2,8.6,85,30.16,7.0,Calm,Calm,-,N/A,,Partly Cloudy,0,2012-12-29 08:22:00
2:54 AM,10.9,8.1,88,30.23,7.0,Calm,Calm,-,N/A,,Clear,0,2012-12-29 08:54:00
3:54 AM,9.0,5.0,84,30.24,7.0,Calm,Calm,-,N/A,,Clear,0,2012-12-29 09:54:00
4:54 AM,6.1,3.0,87,30.25,7.0,WSW,3.5,-,N/A,,Clear,250,2012-12-29 10:54:00
5:54 AM,3.9,1.0,88,30.26,7.0,Calm,Calm,-,N/A,,Clear,0,2012-12-29 11:54:00
6:54 AM,3.0,-0.9,84,30.28,7.0,Calm,Calm,-,N/A,,Clear,0,2012-12-29 12:54:00
7:54 AM,3.0,-2.0,80,30.29,7.0,SW,4.6,-,N/A,,Clear,230,2012-12-29 13:54:00
8:54 AM,3.9,-0.9,80,30.30,7.0,West,3.5,-,N/A,,Clear,260,2012-12-29 14:54:00
9:54 AM,8.1,3.0,80,30.32,6.0,WSW,3.5,-,N/A,,Haze,250,2012-12-29 15:54:00
10:54 AM,12.9,6.1,74,30.32,8.0,WSW,8.1,-,N/A,,Clear,240,2012-12-29 16:54:00
11:54 AM,17.1,8.1,68,30.30,9.0,WSW,5.8,-,N/A,,Clear,240,2012-12-29 17:54:00
12:54 PM,19.9,10.9,68,30.27,10.0,WSW,9.2,-,N/A,,Clear,250,2012-12-29 18:54:00
1:54 PM,24.1,14.0,65,30.27,10.0,WSW,9.2,-,N/A,,Clear,250,2012-12-29 19:54:00
2:54 PM,25.0,16.0,69,30.27,10.0,WSW,10.4,-,N/A,,Clear,240,2012-12-29 20:54:00
3:54 PM,26.1,17.1,69,30.27,10.0,WSW,3.5,-,N/A,,Clear,240,2012-12-29 21:54:00
4:54 PM,23.0,15.8,74,30.22,10.0,SSW,5.8,-,N/A,,Clear,210,2012-12-29 22:54:00
5:54 PM,23.0,16.0,74,30.29,10.0,Calm,Calm,-,N/A,,Clear,0,2012-12-29 23:54:00
6:54 PM,23.0,15.1,72,30.31,10.0,Calm,Calm,-,N/A,,Clear,0,2012-12-30 00:54:00
7:54 PM,21.0,15.1,78,30.31,10.0,SW,3.5,-,N/A,,Clear,230,2012-12-30 01:54:00
8:54 PM,19.0,14.0,81,30.31,10.0,WSW,4.6,-,N/A,,Clear,250,2012-12-30 02:54:00
9:54 PM,14.0,12.0,92,30.31,10.0,Calm,Calm,-,N/A,,Clear,0,2012-12-30 03:54:00
10:54 PM,14.0,9.0,80,30.30,9.0,SSW,3.5,-,N/A,,Clear,210,2012-12-30 04:54:00
11:54 PM,10.9,8.1,88,30.31,9.0,SSW,4.6,-,N/A,,Clear,210,2012-12-30 05:54:00